This is the latest recevied weather packets stored in our database for station/object AC8JV. If no packets are shown the sender has not sent any weather packets the latest 10 day(s).
| Time | Temp. | Humidity | Pressure | Rain* | Wind** | Luminosity | Snow |
|---|---|---|---|---|---|---|---|
| 1777825816 | 14.44° C | 51% | 1012.8 hPa | 0 mm | - | - | - |
| 1777825200 | 13.89° C | 52% | 1013 hPa | 0 mm | - | - | - |
| 1777824600 | 13.33° C | 53% | 1013.1 hPa | 0 mm | - | - | - |
| 1777824002 | 13.33° C | 51% | 1013.2 hPa | 0 mm | - | - | - |
| 1777823404 | 13.33° C | 52% | 1013.1 hPa | 0 mm | - | - | - |
| 1777822801 | 12.78° C | 50% | 1013.3 hPa | 0 mm | - | - | - |
| 1777822225 | 12.78° C | 49% | 1013.5 hPa | 0 mm | - | - | - |
| 1777821622 | 12.78° C | 50% | 1013.3 hPa | 0 mm | - | - | - |
| 1777821004 | 12.78° C | 49% | 1013.2 hPa | 0 mm | - | - | - |
| 1777820402 | 12.22° C | 49% | 1013.3 hPa | 0 mm | - | - | - |
| 1777819803 | 12.22° C | 49% | 1013.2 hPa | 0 mm | - | - | - |
| 1777819198 | 12.22° C | 52% | 1013.3 hPa | 0 mm | - | - | - |
| 1777818603 | 11.11° C | 51% | 1013.6 hPa | 0 mm | - | - | - |
| 1777817998 | 11.11° C | 52% | 1013.5 hPa | 0 mm | - | - | - |
| 1777817406 | 11.11° C | 53% | 1013.5 hPa | 0 mm | - | - | - |
| 1777816855 | 11.11° C | 52% | 1013.5 hPa | 0 mm | - | - | - |
| 1777816224 | 11.11° C | 53% | 1013.8 hPa | 0 mm | - | - | - |
| 1777815602 | 11.11° C | 53% | 1013.9 hPa | 0 mm | - | - | - |
| 1777815003 | 10.56° C | 56% | 1014.1 hPa | 0 mm | - | - | - |
| 1777814405 | 9.44° C | 58% | 1014.1 hPa | 0 mm | - | - | - |
| 1777813806 | 9.44° C | 60% | 1014 hPa | 0 mm | - | - | - |
| 1777813204 | 8.89° C | 62% | 1014 hPa | 0 mm | - | - | - |
| 1777812603 | 8.33° C | 62% | 1014.1 hPa | 0 mm | - | - | - |
| 1777811999 | 7.78° C | 64% | 1014.1 hPa | 0 mm | - | - | - |
| 1777811411 | 7.22° C | 66% | 1014.2 hPa | 0 mm | - | - | - |
* Rain latest hour (hover to see other rain measurements)
** Current wind speed in m/s (hover to see current wind gust speed)